Total_Precipitation_Accumulation
1.50 1.51 1.41 1.38 1.39 1.55 1.71 1.82 1.89 2.18 2.29 1.98 1.63 1.50 1.46 1.51 1.39 1.46 1.40 1.36 1.28 1.36 1.66 1.89 1.77 1.58 1.33 1.13 1.00 0.88 0.76 0.67 0.63 0.56 0.57 0.62 0.63 0.61 0.56 0.49 0.44 0.39 0.34
1.65 1.74 1.64 1.59 1.50 1.53 1.67 1.86 2.04 2.43 2.42 2.26 1.82 1.65 1.60 1.54 1.42 1.37 1.43 1.59 1.44 1.31 1.36 1.57 1.76 1.75 1.62 1.40 1.16 0.96 0.80 0.75 0.66 0.52 0.44 0.48 0.52 0.53 0.55 0.55 0.50 0.41 0.34
1.65 1.65 1.49 1.43 1.50 1.65 1.79 1.84 2.04 2.33 2.03 2.00 1.75 1.68 1.53 1.34 1.21 1.19 1.34 1.48 1.36 1.30 1.36 1.45 1.55 1.60 1.65 1.65 1.49 1.27 1.00 0.84 0.70 0.57 0.47 0.45 0.46 0.45 0.45 0.49 0.50 0.44 0.35
1.54 1.64 1.48 1.39 1.72 1.85 1.91 2.04 2.18 2.19 2.08 2.02 1.82 1.59 1.43 1.33 1.09 1.02 1.03 1.08 1.18 1.04 1.21 1.38 1.41 1.44 1.57 1.75 1.84 1.79 1.46 1.11 0.88 0.74 0.59 0.53 0.54 0.50 0.41 0.40 0.43 0.38 0.29
1.57 1.79 1.71 1.78 2.04 2.11 2.07 2.01 2.25 2.23 2.09 2.04 1.87 1.58 1.28 1.15 0.99 0.88 0.80 0.74 0.83 0.89 0.93 1.05 1.18 1.26 1.55 1.91 2.05 2.07 1.91 1.55 1.16 0.95 0.84 0.73 0.72 0.60 0.42 0.34 0.37 0.38 0.29
1.70 1.95 1.81 1.83 2.02 2.10 2.04 2.00 1.97 2.03 1.85 1.85 1.77 1.47 1.14 0.87 0.82 0.70 0.59 0.58 0.60 0.61 0.70 0.85 1.04 0.93 1.19 1.62 1.85 2.06 2.18 1.97 1.55 1.25 1.12 1.03 0.98 0.81 0.49 0.36 0.35 0.35 0.34
1.59 1.85 1.76 1.86 1.91 1.86 1.83 1.90 1.89 1.74 1.48 1.71 1.74 1.32 0.92 0.73 0.69 0.51 0.49 0.49 0.47 0.50 0.62 0.79 0.95 0.94 0.88 1.01 1.29 1.55 1.90 2.01 1.77 1.49 1.35 1.25 1.24 1.15 0.75 0.53 0.46 0.38 0.41
1.64 1.72 1.75 1.75 1.78 1.77 1.66 1.64 1.72 1.56 1.32 1.50 1.58 1.49 0.96 0.73 0.61 0.47 0.53 0.59 0.60 0.65 0.67 0.72 0.85 0.97 0.98 1.13 1.07 1.03 1.33 1.74 1.98 1.92 1.67 1.37 1.24 1.18 0.99 0.84 0.71 0.60 0.58
1.81 1.80 1.73 1.61 1.49 1.45 1.37 1.39 1.49 1.47 1.32 1.33 1.52 1.68 1.30 0.92 0.81 0.64 0.63 0.65 0.74 0.81 0.77 0.79 0.82 0.94 1.03 1.23 1.33 1.21 1.06 1.27 1.71 2.11 2.09 1.68 1.29 1.13 1.09 1.04 0.99 0.85 0.79
1.59 1.43 1.31 1.28 1.24 1.23 1.13 1.08 1.19 1.23 1.16 1.11 1.24 1.40 1.47 1.42 1.30 0.84 0.61 0.58 0.69 0.79 0.86 0.81 0.73 0.81 0.98 1.16 1.33 1.37 1.09 0.98 1.18 1.72 2.04 1.92 1.57 1.25 1.11 1.11 1.28 1.20 0.93
1.21 1.04 0.95 0.95 0.94 0.94 0.89 0.86 0.88 0.90 0.94 0.95 1.08 1.24 1.34 1.39 1.39 1.25 0.87 0.82 0.83 0.77 0.80 0.80 0.82 0.83 0.87 1.07 1.29 1.24 1.22 1.12 1.06 1.15 1.42 1.64 1.69 1.52 1.39 1.50 1.76 1.81 1.52
0.80 0.69 0.65 0.68 0.74 0.79 0.77 0.76 0.78 0.77 0.84 0.95 0.98 1.09 1.22 1.22 1.22 1.30 1.09 0.97 0.92 0.82 0.82 0.86 0.86 0.92 0.91 1.01 1.05 1.23 1.22 1.01 0.93 0.91 0.99 1.16 1.36 1.42 1.44 1.62 1.98 2.24 2.25
0.63 0.56 0.54 0.57 0.64 0.71 0.68 0.64 0.66 0.75 0.87 0.96 0.94 1.01 1.14 1.17 1.20 1.30 1.26 1.14 1.07 1.02 1.05 1.04 0.88 0.79 0.71 0.81 0.90 0.95 0.88 0.77 0.71 0.70 0.72 0.79 0.91 1.10 1.29 1.49 1.79 2.09 2.27
0.59 0.57 0.52 0.53 0.55 0.60 0.59 0.62 0.62 0.69 0.82 0.90 0.87 1.00 1.11 1.17 1.30 1.42 1.44 1.41 1.27 1.16 1.13 1.09 0.94 0.81 0.77 0.80 0.77 0.75 0.70 0.63 0.53 0.51 0.52 0.54 0.60 0.72 0.94 1.12 1.34 1.58 1.75
0.51 0.57 0.57 0.57 0.59 0.63 0.66 0.72 0.77 0.85 0.99 1.06 1.11 1.22 1.25 1.21 1.26 1.34 1.40 1.45 1.48 1.31 1.15 1.08 0.99 0.86 0.86 0.90 0.82 0.74 0.79 0.63 0.46 0.41 0.40 0.40 0.46 0.56 0.61 0.67 0.81 1.00 1.18
0.41 0.49 0.57 0.58 0.60 0.61 0.65 0.76 0.94 1.10 1.20 1.25 1.28 1.35 1.40 1.35 1.35 1.42 1.41 1.47 1.56 1.47 1.24 1.06 1.00 0.92 0.92 0.83 0.82 0.78 0.73 0.62 0.50 0.43 0.37 0.35 0.36 0.40 0.40 0.42 0.51 0.61 0.76
0.37 0.40 0.47 0.51 0.53 0.57 0.61 0.70 0.83 1.02 1.13 1.16 1.19 1.25 1.27 1.26 1.24 1.23 1.30 1.42 1.54 1.53 1.31 1.12 1.15 1.17 1.13 1.02 0.95 0.88 0.75 0.67 0.54 0.46 0.40 0.37 0.33 0.33 0.34 0.36 0.39 0.44 0.52
0.35 0.37 0.37 0.40 0.42 0.46 0.52 0.63 0.75 0.86 0.95 0.98 0.98 0.99 0.96 0.95 0.98 0.98 1.05 1.14 1.23 1.41 1.38 1.25 1.32 1.38 1.36 1.26 1.20 1.12 0.92 0.72 0.60 0.54 0.45 0.42 0.39 0.35 0.33 0.35 0.37 0.43 0.49
0.28 0.29 0.31 0.35 0.42 0.53 0.63 0.69 0.72 0.76 0.78 0.81 0.88 0.93 0.86 0.83 0.84 0.86 0.89 0.88 0.93 1.11 1.23 1.26 1.32 1.42 1.43 1.42 1.29 1.15 1.08 0.95 0.74 0.64 0.56 0.50 0.45 0.41 0.37 0.36 0.37 0.43 0.48
0.22 0.26 0.31 0.37 0.46 0.53 0.62 0.67 0.68 0.67 0.63 0.59 0.63 0.69 0.71 0.69 0.69 0.75 0.78 0.80 0.82 0.95 1.10 1.20 1.29 1.46 1.49 1.43 1.38 1.23 1.22 1.11 1.00 0.84 0.73 0.60 0.58 0.54 0.48 0.43 0.39 0.39 0.48
0.22 0.27 0.32 0.39 0.43 0.44 0.46 0.43 0.42 0.42 0.40 0.38 0.37 0.41 0.47 0.52 0.55 0.58 0.61 0.73 0.81 0.87 0.95 1.02 1.09 1.29 1.52 1.56 1.37 1.27 1.34 1.33 1.21 1.03 0.92 0.73 0.63 0.56 0.52 0.48 0.45 0.41 0.43
0.23 0.28 0.33 0.39 0.39 0.34 0.38 0.29 0.20 0.20 0.25 0.29 0.33 0.35 0.36 0.39 0.43 0.44 0.45 0.52 0.66 0.75 0.80 0.88 0.95 1.12 1.34 1.50 1.55 1.51 1.44 1.36 1.34 1.23 1.11 1.04 0.87 0.77 0.68 0.58 0.47 0.44 0.42
0.24 0.27 0.28 0.28 0.31 0.35 0.32 0.25 0.16 0.15 0.19 0.23 0.28 0.31 0.28 0.28 0.33 0.36 0.37 0.36 0.39 0.47 0.59 0.73 0.82 0.89 1.04 1.25 1.42 1.42 1.47 1.50 1.51 1.52 1.47 1.46 1.24 1.05 0.89 0.74 0.58 0.45 0.42
0.31 0.30 0.28 0.27 0.32 0.33 0.27 0.22 0.17 0.16 0.21 0.24 0.27 0.29 0.29 0.26 0.26 0.31 0.37 0.36 0.33 0.32 0.35 0.45 0.58 0.75 0.94 1.14 1.40 1.40 1.40 1.49 1.59 1.66 1.64 1.67 1.52 1.35 1.15 0.98 0.79 0.59 0.48
0.37 0.34 0.32 0.34 0.37 0.39 0.31 0.22 0.18 0.20 0.27 0.29 0.30 0.29 0.28 0.27 0.24 0.21 0.28 0.35 0.38 0.37 0.33 0.34 0.41 0.61 0.85 0.98 1.21 1.34 1.32 1.30 1.26 1.23 1.31 1.46 1.53 1.50 1.39 1.19 0.97 0.77 0.60
0.44 0.38 0.35 0.38 0.42 0.48 0.43 0.29 0.23 0.26 0.34 0.37 0.42 0.38 0.29 0.24 0.23 0.20 0.25 0.32 0.34 0.36 0.39 0.38 0.38 0.45 0.59 0.78 0.92 1.07 1.16 1.17 1.07 0.99 0.86 0.91 1.12 1.31 1.48 1.39 1.18 0.98 0.82